Regional Weather Roundup
Issued by NWS

Home | Current Version | Previous Version | Text Only | Print | Product List | Glossary On
Versions: 1 2 3 4 5 6 7 8 9 10 11 12 13 14 15 16 17 18 19 20 21 22 23 24 25 26 27 28 29 30 31 32 33 34 35 36 37 38 39 40 41 42 43 44 45 46 47 48 49 50
000
ASUS45 KBOU 191207
RWRCO

WEATHER ROUNDUP FOR COLORADO
NATIONAL WEATHER SERVICE DENVER/BOULDER CO
600 AM MDT SUN APR 19 2015

NOTE: "FAIR" INDICATES FEW OR NO CLOUDS BELOW 12000 FEET WITH NO
SIGNIFICANT WEATHER AND/OR OBSTRUCTIONS TO VISIBILITY.

COZ001>005-013-030-031-191300-
...NORTHWEST COLORADO...

CITY           SKY/WX    TMP DP  RH WIND       PRES   REMARKS
CRAIG          CLOUDY    34  31  88 W5        30.15S WCI  30
HAYDEN         CLOUDY    34  30  86 CALM      30.14S
MEEKER         CLOUDY    35  31  85 NW8       30.15R WCI  29
MOUNT WERNER   NOT AVBL
STEAMBOAT SPGS CLOUDY    32  32 100 CALM      30.13S
WALDEN         CLOUDY    28  21  74 NW8       30.14R WCI  20
$$

COZ006>008-011-191300-
...WEST CENTRAL VALLEYS...

CITY           SKY/WX    TMP DP  RH WIND       PRES   REMARKS
GRAND JUNCTION MOCLDY    33  33 100 E7        30.13R WCI  27
MONTROSE       CLOUDY    35  33  92 CALM      30.15R
EAGLE          CLOUDY    36  36 100 NW3       30.15S
RIFLE          CLOUDY    33  32  96 CALM      30.15R FOG
DELTA          CLOUDY    37  36  98 W3        30.16R VSB<1/4
NUCLA          CLEAR     34  32  93 SE9       30.15R WCI  26
$$

COZ017>023-064>068-191300-
...SOUTHWEST COLORADO...

CITY           SKY/WX    TMP DP  RH WIND       PRES   REMARKS
DURANGO        CLEAR     26  21  81 NE6       30.05R WCI  19
CORTEZ         CLEAR     32  29  88 CALM      30.07S
PAGOSA SPRINGS CLEAR     27  23  87 CALM      30.08R
TELLURIDE      CLOUDY    30  28  92 CALM      30.14S
WOLF CREEK PAS PTCLDY    18  14  86 NE20      30.14R WCI   1
$$

COZ009-010-012-014-032>034-037-058>063-191300-
...CENTRAL COLORADO...

CITY           SKY/WX    TMP DP  RH WIND       PRES   REMARKS
ASPEN          CLOUDY    31  30  96 CALM      30.11R
BUENA VISTA    PTCLDY    22  15  76 S5        30.09S WCI  15
COPPER MTN     CLOUDY    23  18  80 W14       30.12S WCI  11
BERTHOUD PASS  CLOUDY    14   7  73 NW20      30.12R WCI  -3
COTTONWOOD PAS PTCLDY    30  18  59 W8        30.09S WCI  23
GUNNISON       PTCLDY    25  19  80 CALM      30.14R
KREMMLING      CLOUDY    34  27  75 N5        30.14R WCI  30
LEADVILLE      FLURRIES  22  20  92 NE6       30.10R WCI  14
MONARCH PASS     N/A     16  14  93 MISG      30.21S
SALIDA         CLOUDY    29  24  80 W6        30.17R WCI  23
SUNLIGHT       CLOUDY   N/A N/A N/A CALM      30.20R
WILKERSON PASS CLOUDY    21  18  86 NE10G20   30.12S FOG     WCI  10
$$

COZ069>075-191300-
...SAN LUIS VALLEY/SANGRE DE CRISTO MOUNTAINS...

CITY           SKY/WX    TMP DP  RH WIND       PRES   REMARKS
ALAMOSA        CLEAR     22  19  89 CALM      30.06R
LA VETA PASS   CLOUDY    27  19  74 MISG      30.09S
SAGUACHE       CLEAR     32  27  80 NW15      30.09R WCI  22
$$

COZ035-036-038>040-191300-
...NORTHERN COLORADO FRONT RANGE...

CITY           SKY/WX    TMP DP  RH WIND       PRES   REMARKS
DENVER INTL AP CLOUDY    37  30  75 N24G35    30.11R
DMNS CITY PARK   N/A     38  30  72 N14       30.13R
AURORA         MOCLDY    35  32  88 N20G26    30.11R WCI  25
FRONT RANGE AP CLOUDY    37  32  81 N17       30.11R
ERIE MUNI ARPT CLOUDY    38  31  77 N14       30.12R
BOULDER MUN AP CLOUDY    37  32  81 NE10      30.12R
CENTENNIAL     CLOUDY    36  31  82 N14       30.11R
BROOMFIELD     CLOUDY    36  32  87 N14       30.13R
FORT COLLINS   PTCLDY    37  27  65 N18       30.14R
LONGMONT       PTCLDY    40  31  70 NE9       30.14R
$$

COZ041-046-047-076>085-087-088-191300-
...PIKES PEAK/PALMER DIVIDE AND SOUTHERN FOOTHILLS...

CITY           SKY/WX    TMP DP  RH WIND       PRES   REMARKS
COLO. SPRINGS  FLURRIES  36  28  73 N32G40    30.07S
A. F. ACADEMY  LGT SNOW  32  32 100 NW20G28   30.08R FOG     WCI  20
ELLICOTT       MOCLDY   N/A N/A N/A N36G44    30.02R
FALCON         CLOUDY    32  29  88 N25G37    30.06R WCI  19
FORT CARSON    MOCLDY    37  30  75 N29G40    30.05R SQUALL
LIMON          FLURRIES  35  32  88 N30G39    30.03R WCI  22
MONUMENT HILL  CLOUDY    30  30 100 N18G30    30.08R WCI  18
TRINIDAD       CLOUDY    40  33  76 N24G37    30.04R
$$

COZ042>045-048>051-090-091-191300-
...NORTHEAST COLORADO...

CITY           SKY/WX    TMP DP  RH WIND       PRES   REMARKS
GREELEY ARPT   PTCLDY    37  25  60 N20G26    30.13R
AKRON          CLOUDY    38  35  89 N24G31    30.04R
BURLINGTON     LGT RAIN  43  38  82 N31G41    29.94R
WRAY           DRIZZLE   43  41  92 N21G30    29.98R
STERLING       CLOUDY    41  36  81 N15G24    30.06R
HOLYOKE        CLOUDY    43  37  81 N25G36    30.00R
FORT MORGAN    CLOUDY    39  29  69 N24G35    30.09S
$$

COZ086-089-092>099-191300-
...SOUTHEAST COLORADO...

CITY           SKY/WX    TMP DP  RH WIND       PRES   REMARKS
PUEBLO         CLOUDY    44  32  62 N21G30    30.06R
LA JUNTA       LGT RAIN  45  39  79 N24G32    30.00R
LAMAR          CLOUDY    42  39  89 N22G35    29.92R
SPRINGFIELD      N/A     41  39  93 NW24G37   29.89R
$$


USA.gov is the U.S. government's official web portal to all federal, state and local government web resources and services.